Theta_e
311 311 311 313 314 315 317 318 318 318 317 317 316 315 313 313 313 313 313 314 315 316 317 318 319 319 318 318 318 320 322 324 325 326 326 326 326 326 327 327 327 327 327 327 328 329 330 330 330 330 331 331 332 331 330 329 328 329 329 329 329 328 327 327 326 325 323 322 320 318 317 316 315 314 312 311 309 308 307 306 306 306 306 305 305 305
310 310 311 311 312 313 315 317 318 317 317 317 316 314 313 313 313 314 315 317 318 319 320 321 321 321 320 319 320 321 323 324 325 325 325 325 325 326 326 326 326 326 326 326 327 327 328 328 328 329 330 331 331 330 328 327 326 327 327 327 326 326 325 324 323 321 319 317 315 314 312 312 311 310 309 308 307 306 306 305 305 305 304 304 303 303
310 310 310 310 311 312 314 315 317 317 317 316 316 315 314 314 314 315 316 318 320 322 323 323 322 322 321 321 322 323 324 324 324 324 324 325 325 325 325 325 325 325 325 325 325 326 326 326 327 329 330 330 328 327 326 326 325 325 325 325 324 323 322 320 318 317 315 313 311 310 309 309 308 307 307 306 306 305 305 304 304 303 303 302 302 302
309 310 310 310 310 310 312 314 315 316 317 316 316 315 314 314 314 314 315 317 319 322 322 322 322 322 322 322 323 323 324 324 324 324 324 325 325 325 325 325 324 324 324 325 325 325 326 326 328 329 329 327 326 325 325 325 324 324 322 321 320 319 317 315 313 312 310 309 308 308 307 307 306 306 306 305 304 304 303 303 303 302 302 302 302 302
309 310 310 310 310 310 311 313 314 316 316 316 316 315 314 314 314 314 314 316 319 320 321 321 321 322 322 322 322 322 323 323 324 324 324 325 325 325 325 325 325 325 325 325 325 326 326 328 329 329 327 325 324 324 324 323 322 321 319 318 316 315 313 311 310 309 308 307 307 307 307 306 306 306 305 305 304 303 303 302 302 302 302 302 301 301
308 309 310 310 310 310 310 312 314 315 316 317 316 316 315 314 314 314 314 317 319 319 320 320 320 321 321 321 321 321 322 323 323 323 323 324 324 324 325 325 326 326 326 327 326 327 327 328 328 327 325 324 323 323 322 321 319 318 316 315 313 312 311 309 309 308 308 308 307 307 307 307 306 306 305 305 304 303 303 302 302 302 302 301 301 301
308 308 309 310 310 310 310 311 313 315 316 317 317 316 315 315 314 315 315 318 319 319 319 319 319 319 319 320 320 320 321 321 322 322 322 322 322 323 323 324 325 325 326 326 326 326 326 326 325 324 323 322 322 321 320 318 317 315 314 313 312 311 310 309 309 309 309 308 308 307 307 306 305 305 305 304 304 303 302 302 302 301 301 301 301 301
308 308 309 309 309 309 309 310 312 313 315 316 316 316 315 315 315 316 317 318 318 318 318 318 317 317 317 318 318 319 319 319 318 318 318 319 320 321 322 322 323 324 324 324 324 324 324 324 323 323 322 321 320 319 318 316 315 313 312 312 311 310 310 310 310 310 309 308 307 306 305 304 304 303 303 303 302 302 302 301 301 301 301 300 300 300
308 308 309 309 309 308 307 308 310 312 314 315 315 316 315 316 316 317 317 318 317 317 317 317 316 316 315 315 315 315 315 314 313 313 313 314 316 317 319 320 321 322 322 322 323 323 323 323 323 322 321 319 318 317 315 314 313 312 311 311 311 311 311 311 311 310 309 308 306 305 304 303 302 302 302 301 301 301 301 301 300 300 300 300 300 300
308 308 309 309 308 308 307 306 308 310 313 314 315 315 315 316 316 317 318 317 316 316 316 316 315 315 315 314 313 313 312 311 310 310 310 311 312 313 315 317 319 319 320 320 321 321 321 321 320 319 318 316 315 314 313 312 312 311 311 311 311 310 310 310 310 309 308 306 305 303 302 302 302 301 301 301 301 300 300 300 300 300 300 299 299 299
308 308 309 309 309 308 307 306 307 308 311 313 314 315 315 316 317 317 317 317 316 315 315 315 315 315 315 315 314 313 312 311 311 310 310 310 311 311 312 314 315 316 317 318 318 318 318 318 317 316 315 314 313 312 312 312 311 311 311 311 310 310 309 308 307 306 305 304 303 302 301 301 301 301 300 300 300 300 300 300 300 299 299 299 299 299
308 308 309 309 309 309 309 307 307 307 309 312 313 314 315 316 316 317 317 317 316 315 315 314 314 314 314 314 314 314 314 313 312 312 312 312 312 312 312 312 312 313 313 314 314 314 314 314 314 314 314 313 313 312 312 311 311 311 311 310 309 308 308 306 305 304 303 302 301 301 301 300 300 300 300 300 300 300 300 300 299 299 299 299 299 299
308 308 309 309 309 309 309 309 309 309 309 311 312 313 314 314 315 316 316 316 316 315 314 314 313 312 312 312 313 313 313 314 314 314 314 314 314 313 313 313 312 312 312 312 311 311 311 311 311 311 311 312 313 313 312 312 312 311 310 310 309 308 306 305 304 303 301 301 301 300 300 300 300 300 300 300 300 300 300 300 300 299 300 299 299 299
307 308 309 309 309 310 310 310 310 310 310 311 312 313 313 314 314 314 315 315 315 315 314 313 312 312 311 311 311 311 311 313 314 314 315 315 315 314 314 314 313 313 312 312 312 311 310 310 309 309 309 309 310 310 311 312 312 311 311 310 309 308 307 305 303 302 300 300 300 300 300 300 300 300 300 300 300 300 300 300 300 300 300 300 299 299
307 308 309 309 309 309 310 310 310 310 310 311 313 314 314 314 313 313 314 314 314 314 313 312 312 311 311 310 310 310 310 311 312 314 315 315 315 315 315 314 314 313 313 312 312 312 311 311 310 309 308 307 307 307 307 309 309 310 310 310 310 310 309 308 306 304 303 302 302 301 301 301 301 300 300 300 300 300 300 300 300 299 299 299 299 299
307 308 308 309 309 309 310 310 310 310 310 311 312 313 314 313 313 313 314 313 313 313 312 312 311 311 311 310 310 310 309 310 311 312 313 314 314 314 314 314 313 313 312 312 312 311 311 311 311 310 309 308 307 305 305 305 305 306 306 307 308 308 309 309 308 308 307 306 306 305 304 303 302 301 300 300 300 300 300 300 299 299 299 299 299 299
306 307 308 308 309 309 310 310 310 310 310 311 312 313 313 313 313 313 313 313 313 312 312 311 311 311 311 310 310 310 309 309 309 310 311 311 312 313 313 313 313 313 312 312 312 311 311 311 311 311 310 309 308 306 305 304 303 303 303 303 303 304 305 305 306 306 306 305 305 305 304 303 302 301 301 300 300 300 299 299 299 299 299 299 299 299
306 306 305 306 307 308 309 310 310 310 310 311 312 313 313 313 313 313 313 313 312 312 311 311 311 310 310 310 310 310 309 309 308 309 309 309 310 310 311 311 312 312 312 312 311 311 311 311 311 311 310 309 308 307 306 305 304 304 303 302 302 302 302 302 302 302 302 302 302 302 302 301 301 301 300 300 300 299 299 299 299 299 299 299 299 299
304 304 304 303 304 305 307 309 310 310 311 311 312 313 312 312 312 312 312 312 312 311 311 311 310 310 310 310 310 310 309 309 308 308 309 309 309 309 309 309 310 310 311 311 311 311 311 310 311 310 310 309 308 307 307 306 306 305 304 303 302 301 301 301 301 301 301 301 301 301 301 300 300 300 300 300 300 299 299 299 299 299 299 299 299 299
301 302 302 301 301 302 305 307 309 310 311 311 312 312 312 311 312 312 312 312 311 311 310 310 310 310 310 310 310 310 309 309 308 309 309 309 309 309 309 309 309 309 309 309 309 309 309 309 309 309 308 308 307 306 306 305 305 304 303 302 301 301 300 300 300 301 301 301 301 301 301 301 300 300 300 300 300 300 299 300 300 300 300 300 300 300
300 301 300 300 299 300 301 304 307 309 310 311 311 311 311 311 311 312 312 311 310 310 310 310 310 309 309 310 309 309 309 308 309 309 309 309 309 309 308 308 308 308 308 308 307 307 307 307 307 306 306 306 305 305 304 304 303 303 302 301 301 300 300 301 301 301 301 301 301 301 301 301 300 300 300 300 300 300 300 300 300 300 300 300 300 300
298 298 299 299 298 297 298 301 305 309 310 311 311 311 310 310 310 311 311 310 309 309 309 309 309 309 309 309 309 309 308 308 308 308 309 308 308 308 308 307 307 307 307 307 307 306 306 305 305 304 304 304 303 303 302 302 301 301 301 301 300 301 301 301 301 302 302 302 301 301 301 301 301 300 300 300 300 300 300 300 300 300 300 300 300 300
295 296 297 298 297 296 297 300 304 307 309 310 310 310 310 310 311 311 310 309 308 308 308 309 309 309 309 309 309 308 308 308 308 308 308 308 307 307 307 307 307 307 307 307 307 306 305 305 304 303 303 303 302 302 301 301 301 301 301 301 301 301 301 302 302 302 302 302 302 301 301 301 301 301 301 301 301 301 301 300 300 300 300 300 301 301
293 294 295 296 296 295 296 299 303 306 308 308 309 310 310 310 311 311 310 309 308 308 308 308 309 309 309 308 308 308 307 307 307 307 307 307 307 307 307 306 306 307 307 307 306 306 305 304 304 303 303 303 302 302 301 301 301 301 301 301 301 301 302 302 302 302 302 302 302 302 302 301 301 301 301 301 301 301 301 301 301 301 301 301 301 301
292 292 293 293 294 295 296 299 303 305 307 307 308 309 309 310 310 310 310 308 308 308 308 308 308 308 308 307 307 307 307 307 307 307 306 306 306 306 306 306 306 307 307 307 306 306 305 304 304 303 303 303 303 302 301 301 301 301 301 301 301 302 302 302 303 303 303 302 302 302 302 302 302 301 301 301 301 301 301 301 301 301 301 301 301 301
291 291 292 293 294 296 298 301 303 305 306 306 307 307 308 308 309 310 310 309 308 308 308 308 308 307 307 307 307 306 306 306 306 306 306 306 305 306 305 305 306 306 306 306 306 305 305 304 304 304 303 303 303 302 302 301 301 301 301 302 302 302 303 303 303 303 303 303 302 302 302 302 302 302 302 302 302 302 302 302 302 302 302 302 302 302
291 292 293 294 295 298 300 302 303 304 305 305 305 305 305 306 307 308 308 308 308 308 308 307 307 306 307 306 306 306 306 306 306 305 305 305 305 305 305 305 306 306 306 305 305 305 304 304 304 303 303 303 303 302 302 302 302 302 302 302 302 303 303 303 303 303 303 303 303 302 302 302 302 302 302 302 302 302 302 302 303 303 303 303 303 303
292 292 293 294 296 298 300 302 302 303 303 304 303 303 303 304 305 305 305 305 305 306 307 307 306 306 306 306 305 305 305 305 305 305 304 304 304 304 304 305 305 306 305 305 305 304 304 304 304 303 303 303 303 302 302 302 302 302 302 303 303 303 303 303 303 303 303 303 303 303 302 302 302 303 303 303 303 303 303 303 303 303 303 303 303 303
292 292 293 294 296 297 299 301 302 302 302 303 303 303 302 303 303 304 303 303 304 305 306 306 306 306 305 304 304 304 304 304 304 304 304 304 304 304 304 304 305 305 305 304 304 304 304 304 304 303 303 303 303 303 303 302 302 302 303 303 303 303 303 304 304 304 303 303 303 303 303 303 303 303 303 303 303 303 303 303 303 303 304 304 304 304
292 292 292 293 294 296 298 299 301 301 301 302 302 302 302 302 302 303 302 303 303 304 305 306 306 305 305 304 304 303 303 303 303 303 303 303 303 303 304 304 304 304 304 303 303 303 303 303 304 303 303 303 303 303 303 302 302 303 303 303 303 303 303 304 304 304 304 303 303 303 303 303 303 303 303 303 303 303 303 303 303 303 304 303 304 303
291 291 291 292 293 295 297 298 299 300 300 300 300 301 301 301 301 302 302 303 303 303 303 305 305 305 305 304 303 302 302 302 302 303 303 302 302 302 303 304 304 304 304 303 302 301 301 302 303 303 303 303 303 303 303 303 303 302 303 303 303 303 303 304 304 304 304 304 303 303 303 303 303 303 303 303 303 303 303 303 303 303 303 303 303 303
290 290 290 290 291 293 295 296 298 299 299 299 299 299 300 300 301 301 301 302 302 302 302 303 304 305 305 304 303 302 302 302 302 302 302 301 302 303 303 303 303 303 303 303 302 301 300 300 301 302 302 303 303 303 303 303 303 303 303 303 303 303 303 304 304 304 304 304 304 304 303 303 303 303 303 303 303 303 303 303 303 303 303 303 303 303
289 289 289 289 290 291 292 294 295 296 297 298 298 298 299 299 300 301 301 301 301 302 302 302 302 302 303 303 303 302 302 302 302 302 301 301 301 302 303 302 302 302 302 302 302 302 301 300 300 301 301 302 302 302 302 302 303 303 303 303 303 303 303 304 304 304 304 304 304 303 303 303 303 303 303 302 302 302 302 302 303 303 303 302 302 302
289 289 289 288 289 289 290 291 293 294 295 296 296 297 298 298 299 300 300 301 301 301 302 301 301 301 301 301 302 302 302 301 301 301 301 301 301 302 302 302 302 301 301 301 301 301 301 301 301 300 300 301 301 301 302 302 302 302 303 303 303 304 304 304 304 304 304 304 304 303 303 303 303 302 302 302 302 302 302 302 302 302 302 302 302 302
288 289 289 288 288 288 289 289 290 291 292 293 294 295 296 297 298 299 299 300 300 301 301 301 301 301 301 301 301 301 300 300 301 301 301 302 302 302 302 301 301 301 301 300 300 300 299 300 300 300 300 300 300 301 301 301 302 302 303 303 303 304 304 304 304 304 304 303 303 303 303 303 302 302 302 302 302 302 302 302 302 302 302 302 302 302
287 288 288 288 287 287 287 288 289 289 290 290 291 292 293 294 295 297 298 298 299 300 300 301 301 301 301 301 301 301 300 300 300 301 301 302 302 302 302 301 302 302 301 301 300 300 299 299 299 299 300 300 299 299 300 301 302 302 303 303 303 303 304 304 304 304 303 303 303 303 303 302 302 302 302 302 302 302 302 302 302 302 302 302 302 302
285 286 286 286 287 287 286 287 287 288 288 288 289 290 290 291 293 294 295 296 297 298 299 300 300 300 301 301 301 301 301 301 300 301 301 302 302 302 302 302 302 302 302 302 301 301 300 299 299 299 299 299 299 299 299 300 301 301 302 302 302 303 303 303 303 303 303 303 303 303 302 302 302 302 302 302 302 302 302 302 301 302 302 302 302 302
283 284 284 285 285 285 286 286 286 286 287 287 287 288 289 289 290 291 292 293 295 296 297 298 298 299 300 300 301 301 301 301 301 301 301 301 302 302 302 302 302 302 303 303 303 303 302 301 300 299 298 299 299 300 300 300 300 301 301 301 302 302 303 303 303 302 303 302 302 302 302 302 302 301 301 301 301 301 301 301 301 301 302 302 302 301
281 282 282 282 283 284 284 285 285 285 286 286 286 287 287 288 289 289 290 291 292 293 294 295 296 297 298 299 300 300 301 301 300 300 301 301 301 302 302 302 302 302 302 303 303 303 303 302 301 300 299 299 299 299 300 300 300 300 301 301 301 301 301 302 302 302 302 302 302 302 302 302 301 301 301 301 301 301 301 301 301 301 302 301 301 301
280 280 280 281 281 282 283 283 284 284 285 286 286 287 287 287 288 288 289 289 290 291 292 292 293 294 296 297 298 299 299 300 300 300 300 300 301 301 301 301 301 301 302 302 302 302 302 302 301 301 301 300 300 299 299 299 299 299 300 300 299 299 300 300 301 301 301 301 301 302 301 301 301 300 300 300 300 300 301 301 301 301 301 301 300 300
279 279 279 280 280 280 281 282 283 284 284 285 286 287 287 287 287 288 288 288 289 289 289 290 291 292 294 295 296 297 298 298 298 299 299 299 300 300 300 300 301 301 301 301 301 301 300 300 300 300 300 300 300 299 298 298 298 298 298 299 298 298 299 299 299 299 300 300 300 300 301 300 300 300 300 300 300 300 300 300 301 300 300 300 300 299
279 279 279 279 279 280 280 281 282 283 284 285 286 286 287 287 287 287 287 288 288 288 289 289 290 291 292 293 294 295 296 296 297 297 298 298 298 299 299 299 300 300 300 300 300 299 299 299 299 299 299 299 298 298 297 297 297 297 297 297 298 298 298 298 298 298 298 299 299 299 299 299 299 299 299 299 299 300 300 300 300 299 299 299 299 299
278 278 278 279 279 279 280 280 281 282 283 284 285 285 286 286 286 287 287 287 287 287 288 288 289 290 291 291 292 293 294 295 295 296 296 296 297 297 298 298 298 298 298 299 298 298 298 298 298 298 297 298 298 297 296 295 295 295 295 296 296 297 297 296 297 297 298 298 298 299 299 299 299 299 299 299 299 299 299 299 299 299 299 298 298 298
278 278 278 279 279 279 280 280 281 281 282 283 283 284 284 285 285 286 286 287 287 287 287 287 288 289 289 290 291 291 292 293 294 295 295 295 295 296 296 296 297 297 297 297 297 297 297 297 296 296 296 296 296 296 295 295 295 294 294 294 295 295 296 296 296 297 297 297 298 298 298 298 298 298 298 298 298 298 299 298 298 298 298 298 298 297
278 278 278 279 279 279 279 279 280 280 281 281 282 282 283 284 284 285 285 286 286 287 287 287 288 288 288 288 289 290 290 291 292 293 294 294 294 295 295 295 295 295 296 296 296 296 296 296 295 295 295 295 294 294 294 294 294 294 294 294 294 294 295 295 296 296 296 296 297 297 297 297 298 298 298 298 298 298 298 298 298 298 298 297 297 297
278 278 278 278 279 279 279 279 279 279 280 280 281 281 282 282 283 284 284 285 285 286 286 287 288 288 287 287 288 288 289 290 291 291 292 293 293 294 294 294 295 295 295 295 295 296 296 295 295 294 294 294 294 293 294 294 294 294 293 293 293 294 294 294 295 295 295 296 296 297 297 297 297 297 297 297 297 297 298 297 297 297 297 297 297 296
277 277 278 278 278 278 278 278 279 279 279 279 279 280 280 281 281 282 283 283 284 284 285 286 287 287 286 286 287 288 288 289 289 290 290 291 292 292 293 293 293 294 294 294 295 295 295 294 294 294 294 294 293 293 293 293 293 293 293 293 293 293 293 294 294 295 295 296 296 296 296 296 296 296 296 296 296 296 297 296 296 296 296 296 296 296
276 277 277 277 278 278 278 278 278 278 278 279 279 279 279 280 280 281 281 282 282 283 283 284 285 285 285 285 285 286 287 288 288 289 289 289 290 290 291 291 292 292 293 293 293 293 293 293 293 293 293 293 293 293 292 292 292 292 292 292 293 293 293 294 294 294 295 295 296 296 296 296 296 295 295 295 295 295 295 295 295 295 295 295 295 295
276 276 276 277 277 277 278 278 278 278 278 278 278 278 279 279 279 280 280 280 281 281 282 282 283 283 283 283 283 284 285 286 287 287 288 288 288 289 289 290 290 291 291 292 292 292 292 292 292 292 291 291 292 292 292 292 291 291 291 291 292 292 293 293 293 294 294 295 295 295 295 295 295 294 294 294 294 294 294 294 294 294 294 294 294 294
276 276 276 276 277 277 277 277 278 278 278 278 278 278 278 279 279 279 279 280 280 280 280 281 281 281 281 281 281 282 283 284 285 285 286 286 287 287 287 288 288 289 290 290 290 291 291 291 291 291 291 290 290 290 290 290 290 290 290 290 291 291 292 292 293 293 294 294 294 294 294 293 293 293 293 292 292 292 292 293 292 292 293 293 293 293
276 277 277 277 277 277 277 277 277 277 277 278 278 278 278 279 279 279 279 279 279 279 280 280 280 280 280 280 280 280 281 282 283 283 284 284 284 285 285 285 286 287 288 289 289 289 289 289 289 289 289 289 289 289 289 288 288 289 289 289 290 290 291 291 291 292 292 293 293 292 292 292 291 291 291 291 290 290 291 291 290 290 291 291 292 292
Wind_Speed
26 26 25 18 11 8 10 15 19 21 23 24 25 25 24 24 24 24 24 25 25 26 27 28 29 29 30 30 30 31 32 33 34 34 34 34 35 35 35 35 35 35 34 34 34 35 37 37 37 36 35 36 36 36 35 34 33 33 34 34 35 36 37 37 37 36 34 31 29 27 27 27 27 27 26 26 26 25 24 22 21 20 19 18 17 17
26 27 29 27 22 16 11 10 15 19 22 24 25 24 23 23 23 23 23 24 25 26 28 29 30 30 30 30 30 31 32 33 34 34 34 34 34 34 34 35 35 35 34 34 35 36 37 36 35 35 35 36 36 36 35 33 32 33 34 34 35 36 37 37 35 33 30 28 26 26 26 26 25 25 25 25 25 24 24 22 21 20 19 18 17 17
26 27 28 30 29 23 16 11 11 16 20 23 23 23 23 23 23 23 23 24 25 28 30 30 30 30 30 30 30 31 31 32 32 33 33 33 33 33 33 34 34 34 34 34 34 35 35 35 35 35 36 36 35 35 36 33 33 34 34 35 35 35 35 34 32 30 29 27 27 26 25 25 24 24 24 24 23 23 22 21 20 19 18 18 17 17
26 26 26 28 30 27 22 16 12 13 18 21 22 23 23 23 23 22 21 23 26 28 29 29 28 28 29 29 29 29 29 29 30 31 31 31 31 32 33 33 33 33 33 33 33 34 34 35 36 37 36 35 34 34 34 35 35 34 34 34 33 33 32 31 30 29 29 28 27 26 25 24 24 23 23 22 22 21 20 20 19 18 18 17 17 17
27 27 26 26 28 29 26 20 15 13 16 20 22 22 23 23 22 20 20 22 24 25 25 25 26 27 28 28 28 28 27 27 27 28 29 29 29 30 31 33 33 33 33 33 33 34 35 36 37 38 36 34 34 34 36 36 35 34 33 32 31 31 31 30 30 29 29 27 26 25 24 23 23 22 22 21 20 20 20 19 19 18 18 17 17 16
27 27 26 26 27 28 27 22 17 14 15 18 21 21 21 22 21 19 19 20 21 21 21 22 24 26 28 29 28 28 27 27 26 26 26 26 27 27 29 31 33 33 34 34 34 35 36 37 37 36 35 35 35 37 37 36 35 33 32 31 30 29 29 29 28 28 27 26 25 24 23 22 21 21 21 20 20 20 20 19 19 19 18 18 17 17
26 27 27 26 27 27 27 24 20 16 15 17 20 20 20 20 20 20 20 20 20 20 20 22 24 26 27 29 29 30 29 28 28 27 26 25 25 25 26 28 30 31 32 33 34 35 36 36 35 34 34 36 37 38 36 35 33 32 31 30 29 28 27 27 26 26 25 23 22 21 21 20 20 20 20 20 20 20 20 20 20 19 19 18 18 17
24 27 28 27 28 29 28 27 24 20 17 17 20 21 21 21 21 21 22 21 21 21 22 22 23 24 25 27 28 29 28 27 26 25 24 23 23 23 25 26 27 27 29 30 31 33 34 34 35 36 37 38 37 36 34 33 31 30 29 29 28 27 26 26 25 24 22 21 19 19 19 19 20 20 20 21 21 21 20 20 20 19 19 18 18 17
23 25 27 27 27 28 29 30 28 24 20 18 19 22 24 24 24 24 24 24 23 22 23 23 23 23 23 23 24 24 24 23 22 21 19 18 19 20 22 25 26 27 27 29 30 32 34 36 39 40 40 38 36 35 33 31 30 29 28 27 26 26 25 25 24 23 22 20 19 19 19 20 21 21 21 21 21 21 20 20 19 19 18 17 17 16
24 23 24 25 26 27 29 30 29 27 24 21 20 22 25 28 28 27 26 26 25 24 24 24 25 24 23 22 21 21 20 20 20 19 18 17 16 17 18 21 24 27 29 30 31 33 36 39 41 41 39 37 35 34 32 30 29 28 27 26 25 24 23 23 22 22 21 20 20 20 21 22 22 22 22 22 21 21 20 19 19 18 17 16 15 15
26 25 24 24 25 26 27 28 29 29 28 24 22 21 24 29 32 32 31 29 27 25 25 25 27 27 27 25 23 22 21 20 20 20 20 20 19 17 17 17 19 21 24 27 29 32 34 36 36 36 35 34 33 32 30 29 28 27 26 25 24 23 22 22 22 22 22 21 22 23 23 23 23 23 22 22 21 20 19 19 18 17 16 16 15 14
29 28 27 25 24 25 26 28 29 30 29 26 25 24 24 27 31 33 34 33 30 28 26 26 28 29 30 29 28 26 25 23 22 22 22 22 22 21 19 18 17 17 17 19 20 22 24 25 26 27 28 29 29 29 29 28 27 27 27 26 25 24 23 23 23 23 23 23 23 24 24 24 23 22 21 20 20 19 18 18 17 16 16 15 15 14
30 31 29 27 26 26 27 27 29 30 31 28 27 27 27 26 26 29 31 33 33 31 29 28 28 28 29 30 30 29 28 26 24 23 23 22 22 22 22 21 20 19 18 17 16 16 16 16 17 18 20 22 24 26 27 27 27 27 27 27 27 27 26 26 25 25 24 24 23 23 23 22 22 21 20 19 19 18 18 17 16 16 15 15 14 13
29 30 30 28 27 27 28 29 30 31 33 31 29 27 27 26 25 25 26 29 31 31 30 30 29 28 28 29 30 31 30 29 27 25 24 24 23 23 23 23 23 22 22 21 20 19 18 17 16 16 16 17 19 21 23 24 25 26 27 28 28 29 29 29 29 28 27 26 24 23 22 21 20 19 18 18 17 17 16 16 15 15 14 14 13 12
27 28 29 28 27 28 30 32 33 34 35 33 30 27 26 26 26 26 25 27 29 30 31 32 31 30 29 28 29 30 32 31 30 28 26 26 25 25 25 25 25 24 24 24 24 23 23 22 21 21 19 19 18 19 20 21 22 23 24 24 25 26 27 28 29 29 29 28 26 24 22 20 19 17 16 16 16 15 15 15 14 14 13 13 12 12
21 24 26 28 28 29 31 34 35 36 37 35 32 30 28 27 28 28 27 28 29 31 33 34 33 31 30 29 29 30 32 33 32 31 29 27 26 26 26 27 28 27 26 26 26 26 26 25 25 24 24 23 22 21 20 20 20 20 20 21 21 22 22 23 24 24 24 24 23 22 20 19 18 17 16 15 15 14 14 14 14 13 13 13 12 12
16 17 19 23 26 27 29 30 34 37 37 36 35 33 31 29 29 29 29 30 31 33 35 36 35 32 31 30 29 29 31 32 32 32 31 29 27 26 26 27 28 28 28 28 28 28 28 27 26 26 25 24 24 23 23 22 22 21 21 20 20 19 19 19 19 19 19 19 19 19 18 18 18 18 18 17 16 16 15 15 14 14 13 13 12 12
12 12 11 13 17 22 25 27 30 33 33 35 36 35 33 30 29 29 30 31 33 35 35 35 33 33 32 31 31 30 29 30 31 31 32 30 29 27 27 27 27 28 28 28 29 29 30 29 29 28 27 25 25 25 25 24 24 24 23 23 22 22 21 21 21 21 21 21 21 21 22 22 21 21 20 19 18 17 17 16 15 15 14 13 13 12
7 7 8 8 10 15 21 25 29 31 31 34 37 37 34 31 30 30 30 31 34 36 35 34 32 31 32 33 33 32 30 31 32 33 33 31 29 28 28 28 28 29 28 28 28 28 28 29 29 29 29 27 26 26 26 26 25 25 26 26 26 26 26 26 26 26 26 26 26 25 25 25 24 23 22 20 19 19 18 17 16 15 15 14 13 12
4 4 6 7 9 12 16 22 28 32 33 36 38 37 34 33 31 30 29 31 33 36 36 35 33 32 33 35 36 35 33 34 35 36 35 33 31 29 29 29 30 29 27 26 26 26 27 28 29 30 30 29 28 28 27 27 27 27 28 28 28 29 29 28 28 28 27 27 26 25 25 24 23 22 21 20 20 19 18 17 16 15 14 13 12 11
7 6 6 7 9 9 11 17 25 32 35 37 38 36 34 33 32 30 29 30 33 34 34 34 33 33 35 37 38 37 36 37 39 39 38 35 33 31 30 30 30 29 27 25 25 26 27 29 30 31 31 30 30 29 29 29 29 29 29 29 30 29 29 28 28 27 26 26 25 24 23 22 21 21 20 20 19 18 18 17 16 15 14 13 11 10
9 7 6 6 6 7 7 12 22 31 35 36 36 35 33 31 30 29 28 30 32 32 32 31 32 34 38 40 40 39 38 40 42 43 41 37 34 32 32 32 32 31 29 26 26 27 28 30 31 32 32 31 31 31 31 31 31 31 30 30 30 29 28 28 27 26 26 25 24 23 22 22 21 20 19 19 18 17 16 15 15 14 12 12 11 10
12 10 7 6 4 6 7 11 19 28 32 34 35 34 33 31 29 27 27 30 33 33 33 34 36 38 41 42 41 40 40 41 43 45 43 39 36 35 35 36 35 33 30 27 26 27 28 30 31 32 32 32 32 32 32 32 31 31 30 30 29 28 28 27 26 26 25 24 24 23 22 21 20 19 18 18 17 16 15 14 13 13 12 11 10 9
13 12 9 7 5 6 7 11 18 25 29 31 32 32 31 30 28 26 28 33 35 35 35 37 39 41 42 42 41 41 41 42 44 45 44 41 39 37 37 38 37 34 31 28 27 28 28 29 31 31 31 31 31 32 32 32 31 31 30 30 29 28 27 27 26 25 25 24 23 22 21 20 19 18 17 17 16 15 14 13 13 12 11 10 10 9
13 12 11 9 7 5 6 10 17 23 26 26 26 26 27 27 25 25 30 34 36 36 36 38 41 42 42 42 41 41 41 42 43 45 45 42 40 38 38 38 37 35 31 29 28 28 29 29 29 29 30 30 31 31 31 31 31 30 30 29 29 28 27 26 26 25 24 23 22 21 20 19 18 18 17 16 15 14 14 13 12 12 11 10 10 10
9 9 8 7 5 4 5 9 15 20 22 20 18 17 18 19 20 23 30 35 37 38 39 41 43 43 43 42 41 41 41 41 42 44 44 42 40 38 38 38 37 36 33 30 29 29 29 28 28 28 29 29 30 30 31 31 31 30 30 29 28 28 27 26 25 25 24 23 22 21 20 19 18 17 17 16 15 14 13 13 12 12 11 11 11 10
7 6 5 4 4 4 7 10 13 16 18 17 15 14 14 14 18 23 29 34 37 40 43 45 44 44 43 43 42 40 40 40 40 41 41 41 40 39 38 38 38 36 35 32 30 30 30 29 29 28 28 28 28 29 30 30 30 30 29 29 28 27 27 26 25 24 24 23 22 21 20 20 19 18 17 16 15 14 14 14 13 13 12 12 11 11
8 6 4 3 4 5 8 11 12 13 14 15 14 13 13 14 18 24 28 31 35 40 45 47 46 44 43 42 40 39 38 38 38 38 39 40 41 41 40 40 39 38 37 35 33 32 32 31 31 30 29 29 28 28 29 29 29 29 29 28 28 27 26 26 25 25 24 23 22 22 21 20 19 18 18 17 16 15 15 14 14 13 13 12 12 12
11 9 7 5 5 5 7 9 11 12 13 14 14 13 12 13 16 21 24 28 32 37 43 46 46 44 43 41 40 38 37 36 37 37 38 40 41 42 42 41 40 40 39 37 35 34 33 33 32 32 31 30 29 29 29 29 29 29 29 28 28 27 27 26 26 25 24 24 23 23 22 21 20 19 18 17 17 16 16 15 15 14 14 13 13 13
14 12 11 9 7 6 6 7 9 10 12 13 14 14 13 13 14 18 22 26 30 33 38 42 44 43 42 41 39 37 35 35 36 37 38 40 41 42 43 42 41 40 40 39 37 36 34 34 34 34 33 32 31 31 30 30 30 30 30 29 28 28 27 27 27 26 25 24 24 23 22 21 20 19 19 18 17 17 16 16 15 15 14 14 14 14
17 16 16 14 12 10 8 8 9 10 11 11 12 14 15 15 15 16 18 22 26 30 32 38 41 41 40 39 36 34 33 34 36 37 38 39 41 43 44 43 41 40 40 39 38 36 34 34 35 35 34 34 34 33 32 32 31 31 31 30 30 29 28 28 27 27 26 25 24 23 23 22 21 20 19 18 18 17 17 16 16 15 15 14 14 14
18 19 20 19 17 14 12 11 10 11 11 11 12 14 15 17 17 17 17 19 22 26 28 33 37 38 37 37 35 35 35 35 36 37 37 38 41 43 44 43 41 39 38 38 38 37 35 35 35 36 36 36 36 35 34 33 33 32 32 32 31 30 29 29 28 27 26 26 25 24 23 22 21 20 19 19 18 18 17 17 16 16 15 15 15 15
19 21 22 22 21 18 15 13 12 12 12 12 13 14 16 17 19 19 18 18 20 23 26 29 31 33 34 36 38 38 39 38 37 37 37 38 41 43 43 42 41 39 37 36 38 39 39 39 39 38 37 37 37 37 36 35 34 34 33 33 33 32 30 29 28 27 27 26 25 24 23 22 21 21 20 20 19 19 18 17 17 16 16 16 16 15
18 21 23 24 25 23 20 17 15 14 14 14 14 15 16 18 19 20 20 21 21 23 25 27 27 28 29 33 37 39 39 39 38 38 38 39 41 42 43 42 40 39 37 36 36 38 40 42 41 40 38 37 37 37 36 36 35 35 34 34 33 32 31 30 29 28 27 26 25 24 23 23 22 21 21 20 20 19 19 18 18 17 17 16 16 16
17 19 22 24 26 27 25 23 20 18 17 16 16 16 17 18 20 21 22 23 24 25 26 26 26 26 26 29 33 35 36 37 38 38 38 40 41 42 42 41 40 39 38 37 37 37 39 41 41 40 39 37 36 35 35 35 35 35 34 34 33 32 31 30 29 28 26 26 25 24 24 23 22 22 21 21 21 20 20 19 18 18 18 17 17 17
18 19 21 23 25 27 28 27 25 23 21 19 17 17 17 19 20 22 23 25 26 27 27 27 27 26 26 27 29 31 32 34 36 38 39 41 42 42 42 41 40 39 38 37 37 38 39 40 40 39 39 38 36 34 34 34 34 33 33 32 31 30 30 29 28 27 26 25 25 24 24 23 23 22 22 22 21 21 21 20 19 19 18 18 18 18
20 20 21 22 23 25 26 27 27 26 25 23 21 19 18 18 20 21 23 24 26 27 28 29 28 28 28 28 28 29 29 31 32 35 38 40 41 42 42 41 39 38 37 37 37 37 39 40 39 38 37 37 36 35 34 33 32 32 31 30 30 29 28 28 27 26 26 25 25 24 24 24 24 23 23 23 22 22 22 21 20 20 19 18 18 18
22 23 23 22 23 23 24 25 26 26 26 25 24 22 20 19 19 20 22 23 25 26 28 29 30 30 30 30 30 29 29 29 30 31 35 37 39 40 41 40 38 37 36 35 35 35 36 38 39 38 36 36 36 36 35 33 32 32 31 30 29 28 28 28 27 27 26 26 25 25 25 25 25 25 24 24 24 23 22 22 21 20 19 19 18 18
24 24 24 24 23 23 23 23 23 23 23 24 24 23 21 20 19 19 21 22 24 25 26 28 29 30 31 31 32 32 31 31 30 31 32 34 35 37 38 38 38 37 36 35 34 34 35 37 38 38 37 36 36 35 34 34 33 33 32 31 30 29 29 29 28 28 27 27 26 26 26 26 26 26 25 25 24 23 23 22 21 20 19 19 19 18
24 25 25 24 24 23 22 21 21 20 20 20 21 22 22 21 20 19 19 20 22 23 24 26 27 29 30 32 33 34 34 34 33 32 32 33 34 35 36 38 38 37 37 35 34 34 35 36 37 38 37 37 36 35 35 34 34 33 33 32 31 30 30 30 29 29 28 28 28 27 27 27 27 26 25 24 24 23 22 21 21 20 19 19 19 18
23 24 24 24 23 23 22 20 19 18 17 17 18 19 21 21 21 21 20 19 20 21 22 23 24 26 28 30 32 34 35 35 35 34 34 35 35 36 36 37 37 38 38 37 36 35 35 37 37 37 36 36 36 35 35 35 34 33 32 32 32 31 30 29 29 29 29 28 28 28 27 27 26 25 24 23 23 22 22 21 20 20 19 19 19 19
22 23 22 22 22 21 21 19 18 17 16 16 16 18 19 20 20 20 20 20 20 21 21 21 22 23 25 27 29 31 33 33 34 34 35 35 36 36 36 37 37 37 38 38 37 36 36 36 36 36 36 35 35 35 35 34 33 32 31 31 31 31 30 29 28 28 27 27 27 27 26 26 25 24 23 22 22 21 21 20 20 19 19 19 19 19
21 21 21 21 20 20 19 19 19 18 17 17 17 18 18 18 18 18 18 19 19 20 20 21 22 23 24 25 26 27 29 30 31 31 32 33 34 35 36 36 36 36 36 37 37 37 36 35 35 35 34 34 35 35 34 34 32 31 30 29 29 28 27 27 27 27 26 26 26 25 25 24 23 22 21 21 21 21 20 20 20 20 19 19 19 19
19 19 19 19 19 19 19 19 20 20 19 19 19 18 17 17 16 16 16 17 17 17 18 20 21 23 24 25 25 25 25 26 27 28 28 29 29 31 32 33 34 34 34 35 35 35 35 34 33 33 33 33 33 34 34 33 32 30 28 27 27 26 25 26 26 25 25 25 25 24 23 22 21 20 20 20 20 20 20 20 20 20 20 20 20 20
17 17 17 18 18 18 19 20 20 20 20 20 19 19 18 17 16 16 16 16 15 15 16 17 19 22 24 25 25 24 24 24 24 24 24 25 25 26 28 29 30 30 30 31 31 32 32 31 30 30 30 30 30 30 31 31 31 29 28 27 26 26 26 25 24 24 24 24 23 22 21 20 20 19 19 20 20 20 20 20 21 21 21 20 20 20
16 16 17 17 18 18 19 19 19 19 20 20 19 19 18 17 16 16 16 15 15 15 14 14 16 19 22 23 23 23 23 23 23 22 22 22 22 23 24 25 25 26 26 27 27 27 28 28 27 27 27 26 26 26 27 27 28 28 26 26 26 25 25 23 22 22 22 22 21 20 20 19 19 19 19 19 20 20 21 21 21 21 21 21 21 21
15 16 16 16 17 17 18 18 18 19 19 19 19 19 18 18 17 17 16 16 15 14 13 12 14 16 19 20 20 21 21 22 22 22 22 22 21 21 21 22 22 22 23 24 24 24 24 24 24 23 23 23 23 23 22 23 23 24 23 23 23 22 21 21 21 21 22 21 20 19 19 18 18 19 19 19 19 20 21 21 21 21 21 21 21 22
15 15 15 15 16 16 17 17 18 18 19 19 19 19 18 18 18 17 17 17 16 15 14 13 14 15 17 17 18 18 19 19 20 20 20 21 20 20 20 20 20 20 20 21 21 22 22 22 21 20 19 20 20 20 20 20 20 20 20 19 19 19 19 20 20 20 20 20 19 18 18 18 18 18 18 18 19 19 20 21 21 22 22 22 22 23
14 14 14 14 15 15 16 16 17 17 18 18 18 18 18 17 17 18 18 17 16 16 15 15 15 16 16 16 16 15 15 16 17 17 18 18 18 18 18 18 18 18 18 18 18 19 19 20 19 19 18 16 17 18 18 18 18 17 17 17 17 17 18 18 18 19 19 19 18 18 17 18 18 18 18 17 18 19 20 21 21 22 23 23 23 23
13 13 13 13 14 14 15 15 15 16 16 17 17 17 16 16 17 17 17 17 17 17 17 16 16 17 17 16 16 15 14 14 15 15 16 16 16 16 15 15 15 16 17 17 17 17 17 17 17 16 16 15 15 15 15 16 16 16 16 16 16 16 16 16 17 18 18 18 17 17 16 17 17 17 17 17 18 19 20 20 21 22 23 24 24 24
12 12 12 12 12 13 13 14 14 14 15 15 15 15 15 15 15 15 16 16 17 17 17 16 17 17 17 16 16 15 15 14 14 15 15 15 14 14 14 13 13 13 13 14 15 14 14 15 14 14 13 13 14 14 14 14 14 14 15 15 15 15 15 16 17 17 17 16 16 16 16 16 16 17 17 17 18 18 19 20 21 22 23 24 25 25
Wind_Direction
259 260 256 260 270 267 233 210 207 210 215 223 230 233 232 232 232 235 237 239 240 240 239 239 238 237 236 234 233 231 230 230 230 230 230 231 230 229 227 224 221 219 216 214 211 210 211 213 214 214 213 212 211 208 205 202 200 199 198 196 193 188 182 181 181 180 179 179 180 181 182 182 181 180 180 180 181 183 187 188 188 187 187 188 188 189
255 258 256 254 260 270 267 224 207 210 217 224 229 231 231 230 231 233 235 237 237 235 233 233 234 235 235 234 233 231 229 228 228 228 228 228 228 228 226 224 221 219 216 213 211 210 210 211 212 211 210 208 203 202 204 197 191 188 188 186 184 181 177 176 176 176 175 174 174 174 175 175 176 176 177 178 179 180 182 183 183 184 185 186 187 188
250 255 256 254 254 258 265 251 221 214 221 226 230 231 230 230 230 232 234 235 232 228 224 223 223 225 227 227 225 223 221 221 222 223 224 225 226 226 226 224 222 220 217 215 213 212 211 211 210 209 205 201 200 201 203 190 183 181 178 177 176 174 172 172 172 171 170 169 168 168 169 170 172 173 174 175 176 176 177 179 180 181 182 183 185 186
246 250 253 254 252 251 254 256 244 225 222 226 229 231 230 229 229 231 234 235 230 222 216 212 210 211 213 213 212 211 211 212 214 217 219 220 220 221 222 223 223 222 220 218 216 214 212 210 208 204 200 198 198 195 186 177 173 171 167 167 166 167 168 168 167 166 166 166 166 166 167 168 170 171 172 172 172 173 174 175 176 177 178 180 181 182
242 245 249 251 249 247 246 249 248 234 222 222 225 227 227 225 225 227 232 232 225 215 207 201 198 197 198 198 199 200 202 203 206 208 210 210 210 211 213 216 217 218 218 217 216 214 210 206 202 199 197 195 188 179 172 170 167 164 163 163 165 166 167 167 166 165 165 166 166 167 169 170 171 172 172 172 171 172 172 173 174 175 175 177 178 179
240 242 244 246 245 243 240 243 244 236 222 216 218 221 222 221 220 221 224 219 209 197 189 185 183 183 184 185 186 188 190 190 192 193 194 195 196 197 199 202 205 206 207 209 209 207 203 199 196 194 195 188 179 171 168 166 164 163 164 165 167 168 168 168 167 167 168 169 169 170 172 173 174 174 173 172 172 172 172 172 172 173 173 174 175 176
240 241 242 242 242 240 238 239 243 241 227 212 209 212 214 214 213 213 212 201 185 173 169 168 168 170 174 177 178 178 178 178 179 179 178 179 179 180 183 187 190 193 194 196 197 197 195 193 190 187 183 176 172 169 167 164 163 164 166 167 168 169 168 168 167 167 169 170 170 172 173 174 174 174 173 172 172 171 171 171 171 171 171 172 173 174
240 241 242 241 242 241 239 239 242 245 236 217 205 204 207 207 205 203 199 187 172 163 160 158 159 162 167 171 173 172 169 170 169 168 167 168 167 166 168 171 174 179 183 186 188 188 188 185 180 174 167 165 164 164 163 163 163 165 167 168 169 169 169 168 167 168 169 169 170 171 172 172 172 171 171 170 170 170 169 169 169 169 169 170 170 171
237 240 241 240 240 240 240 239 241 243 241 227 209 200 200 199 197 193 189 181 172 165 161 158 155 156 158 162 164 164 161 159 158 156 158 160 162 163 161 161 161 163 167 172 176 177 175 171 166 162 159 158 158 158 159 161 162 164 166 166 167 168 168 168 169 169 169 168 168 170 170 170 169 168 167 167 166 166 165 165 166 166 167 167 168 170
236 237 239 239 238 237 238 238 239 240 240 233 218 203 196 194 191 186 181 178 175 170 164 160 156 153 152 154 155 155 154 153 153 153 155 158 161 163 162 160 157 155 156 158 160 161 161 158 156 155 154 154 154 155 157 159 160 161 162 163 163 162 163 163 163 164 164 165 166 167 167 166 165 164 163 163 162 162 162 163 163 164 165 166 168 171
239 236 236 236 236 235 234 235 236 237 237 236 229 213 198 192 188 182 176 176 176 174 169 165 160 156 154 153 155 156 157 157 158 160 161 162 163 163 162 161 159 157 156 155 153 153 153 153 153 153 152 152 153 155 156 158 158 159 159 158 157 156 155 154 153 154 156 159 162 163 162 162 161 160 160 160 160 160 162 163 164 166 167 169 171 174
240 236 234 233 232 231 229 229 231 233 234 235 233 225 211 195 186 181 176 174 174 175 173 169 165 161 158 157 157 158 159 161 163 166 168 168 166 164 162 160 159 160 161 160 159 157 155 155 156 157 157 157 158 159 160 160 160 159 158 156 153 151 149 148 148 150 153 156 158 158 158 158 158 158 159 159 160 162 163 166 167 169 171 173 175 178
239 237 234 233 231 227 223 222 223 225 228 230 229 226 220 206 192 182 177 174 174 174 173 170 167 165 162 161 160 159 159 159 161 165 169 171 170 168 165 162 161 161 163 164 165 165 164 164 164 165 166 167 168 168 167 166 165 164 161 158 155 152 149 148 148 149 152 153 155 156 156 156 157 158 160 161 163 164 166 168 170 172 174 176 178 180
236 235 233 230 226 222 218 216 217 219 221 223 224 223 219 213 202 191 181 174 171 170 170 168 166 165 164 163 163 162 160 158 157 159 162 166 169 171 170 167 166 165 166 165 165 164 163 163 164 165 168 171 174 175 175 174 172 170 167 164 162 159 156 154 153 153 154 154 155 156 157 157 158 159 161 163 165 167 168 170 171 173 174 176 177 178
234 233 230 227 222 218 214 214 215 217 218 218 217 216 215 212 206 197 186 176 168 164 164 163 163 163 163 164 164 165 163 161 159 158 157 157 160 164 166 166 166 166 167 166 165 165 164 165 164 163 164 165 168 172 175 177 177 176 175 173 171 169 167 166 165 164 165 165 166 166 166 166 165 165 166 167 168 168 169 170 170 171 172 172 173 173
235 234 233 229 223 216 212 213 215 216 216 214 211 208 208 208 203 195 185 176 168 162 160 158 157 157 160 163 165 166 165 163 161 160 159 157 157 158 160 159 158 160 162 163 163 164 165 166 166 166 165 164 164 164 166 168 171 173 175 176 177 177 177 177 177 177 178 180 182 183 184 182 180 179 177 176 175 174 172 170 169 169 168 168 167 167
229 230 231 230 226 219 212 211 213 216 215 213 208 204 203 202 198 190 181 175 167 161 158 156 154 153 155 157 161 165 165 162 160 160 160 160 160 161 161 157 155 155 158 159 160 161 163 164 166 168 168 167 165 163 162 161 161 161 162 164 166 168 171 173 174 175 177 181 184 187 188 188 186 184 182 181 179 177 174 171 169 167 166 166 165 163
226 219 210 213 217 216 210 207 208 211 212 210 207 204 202 199 194 188 181 174 166 161 158 155 154 153 153 154 157 161 162 160 158 157 158 158 161 164 166 164 161 159 158 158 159 160 161 162 164 168 172 170 166 164 163 161 160 159 158 157 157 157 158 159 161 163 166 169 172 175 177 178 178 178 178 177 176 174 172 170 168 167 166 165 164 163
218 206 182 163 173 190 197 200 201 200 201 202 203 202 201 198 193 187 182 174 166 161 158 155 154 154 154 154 155 158 160 158 155 153 153 153 156 161 167 168 167 164 160 159 159 160 161 162 166 170 172 170 167 165 164 163 163 162 160 159 158 157 157 157 158 160 163 165 168 170 171 172 173 173 173 172 171 170 169 168 167 167 166 166 165 164
163 161 153 139 143 159 175 187 193 194 194 195 197 199 201 201 197 192 187 178 169 162 159 156 155 155 154 154 154 156 159 158 155 152 150 149 151 157 164 167 166 163 159 157 158 160 163 166 168 170 170 169 167 165 164 164 163 163 162 162 161 161 161 161 162 164 166 168 169 170 170 171 171 170 169 168 168 167 167 167 167 167 167 167 167 167
132 141 152 140 132 135 151 170 182 188 190 190 192 194 198 202 203 201 193 181 170 163 159 158 157 157 155 153 153 156 160 160 156 152 149 147 148 153 158 159 157 154 152 154 159 164 167 168 168 167 167 166 165 164 164 164 163 164 164 164 164 165 165 166 167 169 170 171 171 171 171 171 170 169 169 168 167 167 167 168 168 169 170 170 171 172
113 121 147 146 124 110 122 153 172 180 184 185 187 190 194 200 205 205 195 179 168 163 160 158 158 158 157 155 154 157 161 162 160 155 151 147 147 149 152 153 151 149 148 153 160 167 169 168 166 165 164 164 164 164 164 164 164 164 165 166 167 168 169 170 171 172 173 173 173 172 172 171 171 170 169 169 169 169 169 170 172 173 175 176 178 181
102 106 127 140 112 84 99 135 160 171 176 181 184 187 189 195 200 199 188 175 167 163 161 159 159 159 158 157 156 158 162 164 163 160 154 148 147 149 152 152 151 149 149 153 160 166 168 167 165 164 164 165 165 165 165 165 165 166 167 168 169 171 172 173 173 174 174 174 174 174 174 173 172 172 171 171 171 172 173 175 177 179 182 185 188 192
95 97 105 115 97 73 89 126 147 159 169 176 181 184 186 190 192 188 180 173 168 164 161 159 158 157 157 157 156 157 160 163 164 162 157 151 149 151 153 154 152 149 149 153 160 165 167 165 164 163 164 166 167 167 167 166 166 167 169 170 172 173 174 175 176 176 176 176 176 176 176 175 175 175 175 175 176 177 179 181 183 187 190 194 199 204
88 89 90 96 92 83 95 128 144 153 161 168 175 181 184 186 184 179 174 171 169 166 163 159 157 156 156 155 155 156 159 162 164 163 158 151 148 151 154 155 153 149 147 152 159 164 164 162 160 160 163 166 168 169 168 168 168 170 171 173 174 176 177 178 178 178 178 178 179 179 179 179 180 180 180 181 182 183 185 187 191 195 199 203 209 214
87 95 99 100 105 120 138 147 150 152 155 156 158 164 171 174 172 170 169 169 169 168 165 161 157 155 155 156 156 157 159 162 165 165 159 151 147 149 154 155 154 150 147 150 155 160 160 157 155 156 159 163 167 169 170 170 171 172 174 176 177 179 180 180 181 181 181 182 182 183 183 184 185 185 186 187 188 189 191 194 198 202 206 211 216 222
73 93 111 120 136 162 177 174 166 159 155 150 144 140 141 146 153 158 160 163 166 167 165 160 156 154 154 156 156 157 158 161 163 163 160 154 149 150 154 156 156 153 150 150 152 155 154 151 151 153 157 161 165 168 171 172 174 175 177 179 181 182 183 183 184 184 185 185 186 187 187 189 190 191 191 192 193 195 197 200 204 208 213 217 223 228
55 69 96 125 151 173 186 190 186 178 169 160 152 144 138 142 148 150 148 151 157 161 162 160 156 153 153 154 154 155 156 159 160 160 161 157 154 153 156 158 159 157 153 149 150 151 151 149 149 152 155 159 163 167 170 173 176 178 181 183 184 185 186 187 187 188 188 189 190 190 192 193 194 195 195 197 198 200 203 206 209 213 218 222 227 232
54 62 77 101 132 159 177 189 195 194 189 182 174 165 155 152 151 150 148 148 151 155 159 159 158 155 153 152 152 153 155 156 158 160 163 160 156 155 158 160 162 161 156 149 147 149 149 149 150 152 155 159 162 166 169 173 176 179 183 185 187 188 189 190 190 191 192 192 193 194 195 197 197 198 199 200 202 204 208 211 215 218 223 227 232 236
53 60 71 83 101 125 152 171 184 190 193 191 187 182 176 168 158 152 149 149 149 150 154 158 159 157 154 151 150 150 153 156 159 163 166 162 157 156 159 162 164 164 160 151 145 142 144 148 151 154 156 160 164 167 170 174 178 182 185 187 189 191 192 193 193 194 195 196 196 198 199 200 201 201 202 204 206 209 212 216 220 224 229 233 238 242
51 56 65 74 85 101 123 143 159 169 176 178 180 182 182 179 170 160 153 151 149 147 149 156 159 159 157 154 150 148 151 156 161 165 168 163 158 158 162 163 164 166 166 160 150 141 140 144 150 156 160 163 166 169 173 177 181 185 187 189 191 192 194 195 195 196 197 198 199 201 202 203 203 204 205 207 210 213 216 220 225 229 235 240 245 248
53 57 63 69 77 89 106 125 143 155 161 163 166 172 176 179 178 173 165 159 153 150 148 152 156 159 160 160 156 153 154 158 163 168 170 163 160 162 165 165 163 164 168 168 161 152 146 145 150 157 162 166 168 171 174 178 183 186 189 191 192 193 195 197 198 198 199 200 202 203 204 205 206 207 208 211 213 217 220 224 229 234 239 245 250 254
59 62 65 68 73 80 92 108 125 138 147 153 158 163 168 173 176 176 172 165 160 157 154 151 151 154 159 162 162 160 159 162 166 170 170 164 160 162 165 165 164 163 165 167 166 162 158 155 156 159 163 168 170 172 175 179 183 187 190 192 193 194 196 198 200 201 201 202 204 205 206 207 208 209 211 214 217 220 224 228 232 237 242 248 253 259
63 65 66 68 71 75 83 94 107 119 130 138 145 151 157 162 167 169 169 166 164 163 163 161 158 156 156 158 159 159 160 162 166 169 169 165 163 163 166 165 165 165 165 164 164 164 162 162 162 162 163 167 171 174 176 178 182 187 191 194 195 196 197 199 201 202 204 205 206 207 208 209 210 212 215 217 220 223 227 230 234 239 244 249 255 261
64 66 66 67 69 71 75 81 90 99 109 117 124 131 139 146 152 157 160 162 162 164 166 169 169 166 162 159 157 156 157 160 163 166 167 166 166 166 167 167 168 168 167 166 165 163 161 163 165 165 165 166 170 174 178 180 183 187 192 195 198 199 199 201 202 204 205 206 208 210 211 212 214 216 219 221 224 227 230 233 236 240 244 250 256 262
62 64 64 65 66 68 70 74 78 83 89 95 102 111 120 129 137 143 150 155 158 161 164 168 171 172 171 167 163 160 159 160 162 164 166 168 169 169 168 168 171 173 172 170 168 166 164 164 166 168 169 168 170 174 179 183 186 188 191 195 198 200 202 203 204 205 207 208 211 213 215 217 218 220 223 225 227 230 232 235 238 241 246 251 256 261
60 61 61 62 63 65 67 69 72 74 77 81 86 93 102 112 121 129 138 145 152 156 160 163 167 169 171 171 170 168 165 164 164 165 167 169 171 171 170 170 174 178 178 176 175 174 172 169 168 169 171 172 173 175 180 184 188 190 192 194 197 200 202 205 206 208 209 211 213 216 218 220 222 224 226 228 231 233 235 238 241 244 248 252 256 260
57 58 59 59 60 61 63 65 67 69 72 75 77 81 87 96 106 115 124 133 141 148 153 157 161 164 167 170 171 171 170 170 169 169 169 170 172 173 173 173 175 180 185 186 186 185 183 177 173 172 173 176 178 181 183 186 189 191 193 196 198 200 202 205 208 210 212 214 217 219 222 224 225 227 229 231 234 236 238 241 244 248 252 255 257 260
55 56 56 57 57 58 59 60 62 65 69 73 76 79 82 87 95 104 112 121 129 136 143 149 153 157 161 165 168 170 171 171 171 172 172 173 175 176 177 176 177 181 186 190 192 192 190 186 182 179 178 179 181 185 188 190 191 193 195 197 198 200 203 205 208 211 214 217 219 222 225 227 228 229 231 233 236 238 241 243 246 250 253 255 257 259
55 56 56 56 55 55 56 57 59 63 68 73 78 82 84 86 89 95 102 110 118 125 132 140 146 152 156 160 163 166 167 169 170 172 173 175 177 179 179 179 179 182 185 188 190 190 189 187 186 186 186 185 185 186 188 191 193 196 197 196 196 199 202 204 207 211 215 218 220 223 226 228 230 231 233 235 238 241 243 245 247 249 252 254 256 258
55 55 56 56 55 55 55 56 59 62 67 73 79 84 86 87 89 90 94 101 108 114 121 129 137 145 151 155 159 161 163 164 166 169 171 173 176 178 179 179 180 182 184 185 186 186 185 184 184 186 188 189 189 189 190 191 194 196 197 196 197 200 203 205 207 210 214 217 221 224 226 229 231 233 235 237 240 243 246 247 249 250 251 254 256 259
55 55 55 55 55 55 56 58 60 63 67 72 76 79 82 85 87 89 92 95 100 105 112 118 125 132 140 146 152 156 158 160 162 165 167 170 173 175 177 177 179 181 183 183 182 182 183 183 184 185 186 188 189 188 188 190 193 195 196 198 200 203 204 206 209 212 214 217 221 225 227 230 232 234 237 239 242 245 247 249 251 252 254 256 259 261
56 56 55 55 55 56 57 58 59 62 64 67 69 71 74 77 81 85 88 90 93 98 105 111 118 124 129 134 140 146 151 155 159 162 164 166 169 171 173 174 175 178 180 180 179 178 180 182 183 183 185 188 189 187 185 187 189 193 196 200 203 203 202 205 210 213 215 219 222 225 228 230 233 235 238 241 243 246 248 250 253 255 257 260 262 265
57 57 56 57 57 57 56 56 57 57 59 62 64 66 67 70 74 78 81 84 87 91 96 104 112 118 121 124 127 133 140 148 154 158 161 164 166 168 170 170 172 174 177 178 177 176 178 179 180 181 183 185 186 186 185 186 187 191 194 199 202 204 205 208 211 214 217 220 223 225 228 230 233 236 240 243 246 248 251 253 256 258 260 262 264 266
58 58 58 58 58 57 57 56 56 56 57 59 61 62 63 65 68 71 74 77 81 84 88 97 105 109 109 112 116 122 128 136 144 150 155 159 163 166 168 168 169 171 174 176 178 177 177 176 177 179 181 183 184 184 184 185 187 189 192 197 201 204 208 211 214 215 217 220 223 226 229 232 235 239 243 246 249 252 254 256 258 260 262 263 265 266
57 58 59 59 59 59 60 59 59 58 58 59 60 60 61 63 65 66 68 71 74 77 81 90 98 100 100 103 109 115 120 125 131 137 143 149 155 161 165 167 168 170 172 173 176 178 179 178 178 179 180 182 183 184 186 188 189 190 193 198 201 204 207 211 214 217 220 222 224 227 230 234 238 242 246 249 252 255 257 259 261 263 264 265 266 267
55 57 59 60 61 61 62 63 62 62 62 61 61 61 61 62 63 65 67 68 70 72 76 83 89 93 95 98 103 109 114 119 123 127 132 137 142 149 155 160 164 168 171 172 173 174 176 177 178 180 181 181 181 183 187 192 194 195 197 201 204 207 209 213 217 221 224 226 227 230 233 236 240 244 247 251 254 257 260 262 263 265 266 267 268 269
52 55 58 60 61 62 63 64 64 64 64 64 63 63 63 64 65 66 68 68 69 71 73 76 80 85 88 92 97 104 111 115 119 123 126 129 132 137 142 148 153 158 163 167 170 171 172 172 172 174 178 181 182 182 186 191 195 198 200 203 207 210 213 217 221 225 228 230 231 233 235 238 242 246 249 252 255 258 260 263 265 266 267 267 268 269
50 53 56 58 60 61 61 62 63 64 65 65 65 65 65 66 67 69 70 71 72 73 73 74 77 80 83 84 88 95 104 111 117 120 122 124 126 130 134 139 143 148 152 157 161 165 168 169 169 169 171 175 179 182 185 189 193 196 199 203 207 211 215 219 224 228 231 233 234 236 239 242 245 247 250 253 256 258 260 263 265 267 267 267 267 268
47 50 52 55 57 59 59 60 60 61 62 63 64 65 66 67 69 71 73 74 75 76 76 77 79 81 82 83 84 88 93 100 107 113 116 119 121 124 127 132 138 143 147 151 155 158 161 163 166 169 171 172 174 177 181 187 192 196 199 203 208 213 216 221 226 230 233 236 238 241 243 246 248 250 252 253 255 258 260 262 264 266 267 267 267 267
44 46 49 51 54 56 57 57 57 58 59 60 61 63 65 67 69 71 74 75 76 78 79 80 81 82 83 84 85 87 90 95 100 105 109 113 116 117 119 122 128 137 144 148 151 155 158 159 159 162 170 176 179 179 178 183 191 198 202 207 212 217 220 224 230 234 237 240 243 245 248 250 252 253 254 253 254 256 259 260 262 264 265 266 267 267